Location: Unspecified
(48.5539°N, 71.6350°W)
Time: 23:04:58
(UTC-04:00)

ISS - Pass Details

Date: 31 May 2019
Orbit: 408 x 418 km, 51.6° (Epoch: 18 June)

Event Time Altitude Azimuth Distance (km) Brightness Sun altitude
Rises 21:53:02 0° 291° (WNW) 2,356 1.2 -9.8°
Reaches altitude 10° 21:55:09 10° 287° (WNW) 1,493 0.0 -10.0°
Maximum altitude 21:58:27 55° 208° (SSW) 507 -3.5 -10.3°
Enters shadow 22:00:53 16° 134° (SE) 1,161 -2.2 -10.6°
